DW5846 Weather Reports


Display with metric or nautical units.
time (UTC)temp
F
wind
direction
speed
MPH
gust
MPH
rain 1hr
in
rain 24hr
in
rain mn
in
humidity
%
barometer
mb
20180715192644 88 360 0.0 0.0 0.00 0.00 0.00 58 1014.3
20180715192145 88 70 0.0 0.0 0.00 0.00 0.00 54 1014.4
20180715191645 88 72 0.0 0.0 0.00 0.00 0.00 60 1014.4
20180715191146 88 131 0.0 0.0 0.00 0.00 0.00 56 1014.5
20180715190645 88 314 0.0 0.0 0.00 0.00 0.00 54 1014.5
20180715190145 88 31 0.0 0.0 0.00 0.00 0.00 55 1014.4
20180715185643 87 50 0.0 0.0 0.00 0.00 0.00 56 1014.5
20180715185143 87 45 0.0 0.0 0.00 0.00 0.00 58 1014.5
20180715184639 87 44 0.0 0.0 0.00 0.00 0.00 55 1014.5
20180715184158 87 351 0.0 0.0 0.00 0.00 0.00 57 1014.5
20180715183657 87 36 0.0 0.0 0.00 0.00 0.00 58 1014.5
20180715183156 87 31 0.0 0.0 0.00 0.00 0.00 56 1014.6
20180715182654 87 113 0.0 0.0 0.00 0.00 0.00 58 1014.7
20180715182152 87 16 0.0 0.0 0.00 0.00 0.00 59 1014.7
20180715181649 86 53 0.0 0.0 0.00 0.00 0.00 60 1014.7
20180715181149 86 20 0.0 0.0 0.00 0.00 0.00 60 1015.2
20180715180642 86 27 0.0 0.0 0.00 0.00 0.00 62 1014.9
20180715175656 86 103 0.0 0.0 0.00 0.00 0.00 62 1014.9
20180715175155 86 70 0.0 0.0 0.00 0.00 0.00 62 1015.0
20180715174653 85 341 0.0 0.0 0.00 0.00 0.00 63 1015.1
20180715174154 85 254 0.0 0.0 0.00 0.00 0.00 65 1015.1
20180715173650 85 262 0.0 0.0 0.00 0.00 0.00 63 1015.0
20180715173149 85 6 0.0 0.0 0.00 0.00 0.00 64 1015.1
20180715172646 85 322 0.0 0.0 0.00 0.00 0.00 64 1015.1
20180715172144 85 299 0.0 0.0 0.00 0.00 0.00 64 1015.1
20180715171642 85 259 0.0 0.0 0.00 0.00 0.00 65 1015.1
20180715171142 85 201 0.0 0.0 0.00 0.00 0.00 68 1015.4
20180715170642 85 9 0.0 0.0 0.00 0.00 0.00 64 1015.0
20180715170140 85 8 0.0 0.0 0.00 0.00 0.00 67 1015.0
20180715165644 85 88 0.0 0.0 0.00 0.00 0.00 63 1015.0
20180715165142 85 76 0.0 0.0 0.00 0.00 0.00 65 1015.0
20180715164641 85 37 0.0 0.0 0.00 0.00 0.00 64 1015.0
20180715164139 84 55 0.0 0.0 0.00 0.00 0.00 65 1015.0
20180715163700 84 315 0.0 0.0 0.00 0.00 0.00 66 1014.9
20180715163157 84 248 0.0 0.0 0.00 0.00 0.00 65 1015.0
20180715162655 84 280 0.0 0.0 0.00 0.00 0.00 67 1014.9
20180715162154 84 240 0.0 0.0 0.00 0.00 0.00 64 1015.0
20180715161653 84 249 0.0 0.0 0.00 0.00 0.00 62 1014.9
20180715161152 85 281 0.0 0.0 0.00 0.00 0.00 64 1015.0
20180715160650 84 183 0.0 0.0 0.00 0.00 0.00 67 1014.9
20180715160149 84 115 0.0 0.0 0.00 0.00 0.00 67 1014.9
20180715155648 84 77 0.0 0.0 0.00 0.00 0.00 66 1014.9
20180715154647 84 200 0.0 0.0 0.00 0.00 0.00 64 1014.9
20180715154145 85 237 0.0 0.0 0.00 0.00 0.00 65 1015.0
20180715153641 85 112 0.0 0.0 0.00 0.00 0.00 65 1014.9
20180715153140 84 14 0.0 0.0 0.00 0.00 0.00 64 1014.9
20180715152156 84 89 0.0 0.0 0.00 0.00 0.00 67 1014.9
20180715151655 83 54 0.0 0.0 0.00 0.00 0.00 66 1014.9
20180715151152 83 61 0.0 0.0 0.00 0.00 0.00 65 1014.9
20180715150652 83 90 0.0 0.0 0.00 0.00 0.00 67 1014.9
20180715150151 82 81 0.0 0.0 0.00 0.00 0.00 68 1014.9
20180715145650 82 13 0.0 0.0 0.00 0.00 0.00 70 1015.0
20180715145150 81 13 0.0 0.0 0.00 0.00 0.00 73 1015.0
20180715144650 81 218 0.0 0.0 0.00 0.00 0.00 72 1015.1
20180715144148 81 310 0.0 0.0 0.00 0.00 0.00 74 1015.1
20180715143647 80 287 0.0 0.0 0.00 0.00 0.00 74 1015.1
20180715143146 80 249 0.0 0.0 0.00 0.00 0.00 74 1015.2
20180715142140 79 320 0.0 0.0 0.00 0.00 0.00 78 1015.2
20180715141658 79 322 0.0 0.0 0.00 0.00 0.00 78 1015.2
20180715141158 78 23 0.0 0.0 0.00 0.00 0.00 80 1015.2
20180715140658 78 9 0.0 0.0 0.00 0.00 0.00 81 1015.2
20180715140154 77 324 0.0 0.0 0.00 0.00 0.00 83 1015.2
20180715135653 77 231 0.0 0.0 0.00 0.00 0.00 85 1015.2
20180715135150 76 231 0.0 0.0 0.00 0.00 0.00 87 1015.2
20180715134646 75 231 0.0 0.0 0.00 0.00 0.00 89 1015.2
20180715134143 74 231 0.0 0.0 0.00 0.00 0.00 90 1015.2
20180715133642 74 223 0.0 0.0 0.00 0.00 0.00 91 1015.1
20180715133141 73 223 0.0 0.0 0.00 0.00 0.00 91 1015.1
20180715132659 73 223 0.0 0.0 0.00 0.00 0.00 91 1015.1
20180715132140 73 223 0.0 0.0 0.00 0.00 0.00 92 1015.1
20180715131640 73 223 0.0 0.0 0.00 0.00 0.00 94 1015.0
20180715131140 72 223 0.0 0.0 0.00 0.00 0.00 94 1015.0
20180715130640 72 223 0.0 0.0 0.00 0.00 0.00 95 1015.0
20180715130157 71 223 0.0 0.0 0.00 0.00 0.00 95 1015.0
20180715125656 71 223 0.0 0.0 0.00 0.00 0.00 95 1015.0
20180715125157 70 223 0.0 0.0 0.00 0.00 0.00 96 1015.0
20180715124652 70 223 0.0 0.0 0.00 0.00 0.00 96 1014.9
20180715124151 69 223 0.0 0.0 0.00 0.00 0.00 96 1014.9
20180715123649 68 223 0.0 0.0 0.00 0.00 0.00 95 1014.8
20180715123147 67 223 0.0 0.0 0.00 0.00 0.00 95 1014.8
20180715122646 66 223 0.0 0.0 0.00 0.00 0.00 95 1014.8
20180715122145 66 223 0.0 0.0 0.00 0.00 0.00 95 1014.8
20180715121645 65 223 0.0 0.0 0.00 0.00 0.00 95 1014.8
20180715121149 64 223 0.0 0.0 0.00 0.00 0.00 95 1014.6
20180715120649 64 223 0.0 0.0 0.00 0.00 0.00 94 1014.6
20180715120149 64 223 0.0 0.0 0.00 0.00 0.00 94 1014.6
20180715115647 63 223 0.0 0.0 0.00 0.00 0.00 94 1014.6
20180715115147 63 223 0.0 0.0 0.00 0.00 0.00 94 1014.7
20180715114143 63 223 0.0 0.0 0.00 0.00 0.00 94 1014.6
20180715113700 63 223 0.0 0.0 0.00 0.00 0.00 94 1014.6
20180715113156 63 223 0.0 0.0 0.00 0.00 0.00 94 1014.6
20180715112657 63 223 0.0 0.0 0.00 0.00 0.00 94 1014.5
20180715112156 63 223 0.0 0.0 0.00 0.00 0.00 94 1014.5
20180715111151 63 223 0.0 0.0 0.00 0.00 0.00 94 1014.5
20180715105656 64 223 0.0 0.0 0.00 0.00 0.00 93 1014.4
20180715105154 64 223 0.0 0.0 0.00 0.00 0.00 94 1014.3
20180715104652 64 223 0.0 0.0 0.00 0.00 0.00 94 1014.3
20180715104153 64 223 0.0 0.0 0.00 0.00 0.00 94 1014.3
20180715103652 64 223 0.0 0.0 0.00 0.00 0.00 94 1014.3
20180715103151 64 223 0.0 0.0 0.00 0.00 0.00 94 1014.3
20180715102646 64 223 0.0 0.0 0.00 0.00 0.00 94 1014.1
20180715101656 64 223 0.0 0.0 0.00 0.00 0.00 93 1014.1
20180715101153 64 223 0.0 0.0 0.00 0.00 0.00 93 1014.1
20180715100651 64 223 0.0 0.0 0.00 0.00 0.00 94 1014.0
20180715100155 65 202 0.0 0.0 0.00 0.00 0.00 94 1014.1
20180715095656 64 233 0.0 0.0 0.00 0.00 0.00 94 1014.0
20180715095155 64 233 0.0 0.0 0.00 0.00 0.00 94 1013.9
20180715094652 64 233 0.0 0.0 0.00 0.00 0.00 93 1013.9
20180715094153 64 233 0.0 0.0 0.00 0.00 0.00 93 1014.1
20180715093652 64 233 327.0 327.0 0.00 0.00 0.00 93 1013.6
20180715093148 64 233 0.0 0.0 0.00 0.00 0.00 93 1014.1
20180715092645 64 233 0.0 0.0 0.00 0.00 0.00 93 1014.2
20180715092142 64 233 0.0 0.0 0.00 0.00 0.00 93 1014.2
20180715091642 64 233 0.0 0.0 0.00 0.00 0.00 93 1014.3
20180715091141 65 233 0.0 0.0 0.00 0.00 0.00 93 1014.3
20180715090640 65 233 0.0 0.0 0.00 0.00 0.00 93 1014.3
20180715090159 65 235 0.0 0.0 0.00 0.00 0.00 93 1014.3
20180715085642 65 240 0.0 0.0 0.00 0.00 0.00 93 1014.3
20180715085142 65 240 0.0 0.0 0.00 0.00 0.00 93 1014.2
20180715084640 65 240 0.0 0.0 0.00 0.00 0.00 93 1014.2
20180715084158 65 240 0.0 0.0 0.00 0.01 0.00 93 1014.1
20180715083657 65 240 0.0 0.0 0.00 0.01 0.00 93 1014.2
20180715083156 65 240 0.0 0.0 0.00 0.01 0.00 93 1014.2
20180715082148 65 240 0.0 0.0 0.00 0.01 0.00 93 1014.2
20180715081647 65 240 0.0 0.0 0.00 0.01 0.00 93 1014.1
20180715081143 65 240 0.0 0.0 0.00 0.01 0.00 93 1014.1
20180715080641 65 240 327.0 327.0 0.00 0.00 0.00 93 1013.6
20180715080140 65 240 0.0 0.0 0.00 0.01 0.00 93 1014.1
20180715075658 65 240 0.0 0.0 0.00 0.01 0.00 92 1014.0
20180715075142 66 240 0.0 0.0 0.00 0.01 0.00 93 1013.9
20180715074641 66 240 0.0 0.0 0.00 0.01 0.00 93 1013.9
20180715074139 66 240 0.0 0.0 0.00 0.01 0.00 93 1013.9
20180715073639 66 240 0.0 0.0 0.00 0.01 0.00 93 1014.0
20180715073158 66 240 0.0 0.0 0.00 0.01 0.00 93 1014.0
20180715072658 66 240 0.0 0.0 0.00 0.01 0.00 92 1014.0
20180715072138 66 240 0.0 0.0 0.00 0.01 0.00 92 1014.1
20180715071639 66 240 0.0 0.0 0.00 0.01 0.00 92 1014.1
20180715071157 66 240 0.0 0.0 0.00 0.01 0.00 92 1014.0
20180715070657 67 240 0.0 0.0 0.00 0.01 0.00 92 1014.0
20180715070158 67 240 0.0 0.0 0.00 0.01 0.00 92 1014.0
20180715065659 67 240 0.0 0.0 0.00 0.01 0.00 92 1014.0
20180715065158 67 240 0.0 0.0 0.00 0.01 0.00 92 1013.9
20180715064640 67 240 0.0 0.0 0.00 0.01 0.00 92 1013.9
20180715064139 67 240 0.0 0.0 0.00 0.01 0.00 92 1013.9
20180715063639 67 240 0.0 0.0 0.00 0.01 0.00 92 1014.0
20180715063139 67 240 0.0 0.0 0.00 0.01 0.00 92 1014.1
20180715062658 68 240 0.0 0.0 0.00 0.01 0.00 92 1014.2
20180715062157 68 240 0.0 0.0 0.00 0.01 0.00 92 1014.3
20180715061656 68 240 0.0 0.0 0.00 0.01 0.00 92 1014.2
20180715061156 68 240 0.0 0.0 0.00 0.01 0.00 92 1014.3
20180715060656 68 240 0.0 0.0 0.00 0.01 0.00 92 1014.3
20180715060157 68 240 0.0 0.0 0.00 0.01 0.00 91 1014.2
20180715055656 68 240 0.0 0.0 0.00 0.01 0.00 91 1014.2
20180715055156 68 240 0.0 0.0 0.00 0.01 0.00 92 1014.2
20180715054653 68 240 0.0 0.0 0.00 0.01 0.00 91 1014.2
20180715054154 69 240 0.0 0.0 0.00 0.01 0.01 91 1014.4
20180715053656 69 240 0.0 0.0 0.00 0.01 0.01 91 1014.4
20180715053153 69 240 0.0 0.0 0.00 0.01 0.01 92 1014.4
20180715052653 69 240 0.0 0.0 0.00 0.01 0.01 91 1014.4
20180715052153 69 240 0.0 0.0 0.00 0.01 0.01 91 1014.5
20180715051653 69 240 0.0 0.0 0.00 0.01 0.01 91 1014.5
20180715051151 69 240 0.0 0.0 0.00 0.01 0.01 91 1014.6
20180715050650 69 240 0.0 0.0 0.00 0.01 0.01 91 1014.6
20180715050151 70 240 0.0 0.0 0.00 0.01 0.01 91 1014.6
20180715045650 70 240 0.0 0.0 0.00 0.01 0.01 91 1014.6
20180715045148 70 240 0.0 0.0 0.00 0.01 0.01 91 1014.5
20180715044647 70 240 0.0 0.0 0.00 0.01 0.01 91 1014.4
20180715044149 70 240 0.0 0.0 0.00 0.01 0.01 91 1014.4
20180715043647 70 240 0.0 0.0 0.00 0.01 0.01 90 1014.5
20180715043149 70 240 0.0 0.0 0.00 0.01 0.01 91 1014.6
20180715042650 70 240 0.0 0.0 0.00 0.01 0.01 90 1014.6
20180715042150 70 240 0.0 0.0 0.00 0.01 0.01 90 1014.6
20180715041649 70 240 0.0 0.0 0.00 0.01 0.01 90 1014.5
20180715041148 71 240 0.0 0.0 0.00 0.01 0.01 90 1014.5
20180715040646 71 240 0.0 0.0 0.00 0.01 0.01 89 1014.5
20180715040144 71 240 0.0 0.0 0.00 0.01 0.01 89 1014.5
20180715035644 71 240 0.0 0.0 0.00 0.01 0.01 89 1014.7
20180715035143 71 240 0.0 0.0 0.00 0.01 0.01 89 1014.7
20180715034641 71 240 0.0 0.0 0.00 0.01 0.01 88 1014.7
20180715034141 71 240 0.0 0.0 0.00 0.01 0.01 88 1014.6
20180715033639 72 240 0.0 0.0 0.00 0.01 0.01 88 1014.5
20180715033159 72 240 0.0 0.0 0.00 0.01 0.01 88 1014.5
20180715032641 72 240 0.0 0.0 0.00 0.01 0.01 88 1014.5
20180715032141 72 240 0.0 0.0 0.00 0.01 0.01 87 1014.4
20180715031638 72 240 0.0 0.0 0.00 0.01 0.01 87 1014.3
20180715031158 73 240 0.0 0.0 0.00 0.01 0.01 87 1014.2
20180715030657 73 240 0.0 0.0 0.00 0.01 0.01 87 1014.1
20180715030155 73 240 0.0 0.0 0.00 0.01 0.01 86 1014.0
20180715025656 74 240 0.0 0.0 0.00 0.01 0.01 86 1014.0
20180715025154 74 240 0.0 0.0 0.00 0.01 0.01 86 1013.9
20180715024652 74 240 0.0 0.0 0.00 0.01 0.01 86 1013.8
20180715024150 74 240 0.0 0.0 0.00 0.01 0.01 85 1013.9
20180715023650 75 240 0.0 0.0 0.00 0.01 0.01 85 1013.9
20180715023149 75 240 0.0 0.0 0.00 0.01 0.01 84 1013.8
20180715022649 75 240 0.0 0.0 0.00 0.01 0.01 84 1013.7
20180715022147 75 240 0.0 0.0 0.00 0.01 0.01 83 1013.6
20180715021651 76 240 0.0 0.0 0.00 0.01 0.01 82 1013.6
20180715021150 76 240 0.0 0.0 0.00 0.01 0.01 82 1013.4
20180715020648 76 240 0.0 0.0 0.00 0.01 0.01 81 1013.3
20180715020146 77 240 0.0 0.0 0.00 0.01 0.01 80 1013.2
20180715015646 77 240 0.0 0.0 0.00 0.01 0.01 79 1013.2
20180715015147 78 240 0.0 0.0 0.00 0.01 0.01 78 1013.2
20180715014648 79 240 0.0 0.0 0.00 0.01 0.01 76 1013.1
20180715014147 79 240 0.0 0.0 0.00 0.01 0.01 75 1013.0
20180715013647 80 240 0.0 0.0 0.00 0.01 0.01 73 1012.9
20180715013146 81 240 0.0 0.0 0.00 0.01 0.01 73 1012.8
20180715012646 81 240 0.0 0.0 0.00 0.01 0.01 72 1012.9
20180715012144 81 240 0.0 0.0 0.00 0.01 0.01 69 1012.8
20180715011643 82 240 0.0 0.0 0.00 0.01 0.01 68 1012.7
20180715011144 82 240 0.0 0.0 0.00 0.01 0.01 67 1012.8
20180715010643 82 240 0.0 0.0 0.00 0.00 0.01 64 1013.2
20180715005653 83 249 0.0 0.0 0.00 0.01 0.01 63 1012.8
20180715005153 83 269 0.0 0.0 0.00 0.00 0.01 64 1013.2
20180715004647 83 255 0.0 0.0 0.00 0.01 0.01 63 1012.8
20180715004146 84 255 0.0 0.0 0.00 0.01 0.01 61 1012.8
20180715003647 84 259 0.0 0.0 0.00 0.01 0.01 61 1012.8
20180715003147 84 300 0.0 0.0 0.00 0.01 0.01 60 1012.7
20180715002645 84 300 0.0 0.0 0.00 0.01 0.01 58 1012.8
20180715002144 84 259 0.0 0.0 0.00 0.01 0.01 60 1012.9
20180715001644 84 335 0.0 0.0 0.00 0.01 0.01 59 1012.8
20180715000657 85 302 0.0 0.0 0.00 0.01 0.01 59 1012.8
20180715000155 85 324 0.0 0.0 0.00 0.01 0.01 59 1012.8
20180714234653 85 248 0.0 0.0 0.00 0.01 0.01 58 1012.9
20180714234152 85 318 0.0 0.0 0.00 0.01 0.01 54 1012.9
20180714233646 86 358 0.0 0.0 0.00 0.01 0.01 56 1013.1
20180714233147 86 304 0.0 0.0 0.00 0.01 0.01 54 1013.1
20180714232644 86 349 0.0 0.0 0.00 0.01 0.01 54 1013.2
20180714232144 86 29 0.0 0.0 0.00 0.01 0.01 55 1013.2
20180714231149 87 318 0.0 0.0 0.00 0.01 0.01 52 1013.3
20180714230646 87 21 0.0 0.0 0.00 0.01 0.01 53 1013.3
20180714230149 87 257 0.0 0.0 0.00 0.01 0.01 55 1013.3
20180714225646 87 266 0.0 0.0 0.00 0.01 0.01 56 1013.3
20180714224657 86 219 0.0 0.0 0.00 0.01 0.01 56 1013.3
20180714224156 86 262 0.0 0.0 0.00 0.01 0.01 59 1013.3
20180714223654 86 245 0.0 0.0 0.00 0.01 0.01 59 1013.3
20180714223152 86 355 0.0 0.0 0.00 0.01 0.01 59 1013.3
20180714222652 86 266 0.0 0.0 0.00 0.01 0.01 59 1013.3
20180714222148 85 241 0.0 0.0 0.00 0.01 0.01 60 1013.4
20180714221648 85 6 0.0 0.0 0.00 0.01 0.01 62 1013.5
20180714220645 85 41 0.0 0.0 0.00 0.01 0.01 56 1013.7
20180714220143 86 31 0.0 0.0 0.00 0.01 0.01 58 1013.7
20180714215645 87 256 0.0 0.0 0.00 0.01 0.01 58 1013.7
20180714215144 87 308 0.0 0.0 0.00 0.01 0.01 57 1013.7
20180714214138 86 232 0.0 0.0 0.00 0.01 0.01 60 1013.7
20180714213638 86 260 0.0 0.0 0.00 0.01 0.01 59 1013.7
20180714213155 86 253 0.0 0.0 0.00 0.01 0.01 62 1013.8
20180714212655 85 37 0.0 0.0 0.00 0.01 0.01 59 1013.9
20180714212153 85 44 0.0 0.0 0.00 0.01 0.01 58 1013.9
20180714211652 86 15 0.0 0.0 0.00 0.01 0.01 60 1014.0
20180714211152 86 23 0.0 0.0 0.00 0.01 0.01 58 1013.9
20180714210150 86 219 0.0 0.0 0.00 0.01 0.01 57 1013.9
20180714205649 86 252 0.0 0.0 0.00 0.01 0.01 59 1014.1
20180714205151 86 256 0.0 0.0 0.00 0.01 0.01 60 1014.1
20180714204143 86 258 0.0 0.0 0.00 0.01 0.01 61 1014.2
20180714203642 86 255 0.0 0.0 0.00 0.01 0.01 58 1014.3
20180714203141 86 253 0.0 0.0 0.00 0.00 0.01 56 1014.7
20180714202657 86 283 0.0 0.0 0.00 0.01 0.01 58 1014.3
20180714202156 85 353 0.0 0.0 0.00 0.01 0.01 58 1014.3
20180714201653 85 293 0.0 0.0 0.00 0.01 0.01 63 1014.4
20180714201151 85 237 0.0 0.0 0.00 0.01 0.01 59 1014.4
20180714200648 84 272 0.0 0.0 0.00 0.01 0.01 65 1014.5
20180714200148 84 65 0.0 0.0 0.00 0.01 0.01 63 1014.5
20180714195144 83 70 0.0 0.0 0.00 0.01 0.01 66 1014.5
20180714194641 84 64 0.0 0.0 0.00 0.01 0.01 63 1014.6
20180714194145 84 106 0.0 0.0 0.00 0.06 0.01 62 1014.7
20180714193643 84 67 0.0 0.0 0.00 0.06 0.01 63 1014.7